Location: Fernhill
(41.0167°S, 175.6333°E)
Time: 09:31:27
(UTC+00:00)

CSL-04 Rocket - Pass Details

Date: 08 November 2025
Orbit: 805 x 857 km, 98.7° (Epoch: 12 December)

Event Time Altitude Azimuth Distance (km) Brightness Sun altitude
Rises 08:47:18 0° 163° (SSE) 3,372 7.2 -16.9°
Reaches altitude 10° 08:49:43 10° 159° (SSE) 2,428 6.4 -17.2°
Maximum altitude 08:55:01 61° 79° (E) 924 3.6 -18.0°
Enters shadow 08:58:16 23° 5° (N) 1,655 4.8 -18.4°
